Temperature
22 22 21 21 21 20 20 20 19 19 19 19 19 19 19 19 19 19 18 18 18 18 18 18 18 18 18 18 18 18 18 18 18 18 18 18 18 18 18 17 17 17 17
22 22 21 21 21 20 20 20 19 19 19 19 19 19 19 19 19 18 18 18 18 18 18 18 18 18 18 18 18 18 18 18 18 18 18 18 18 18 17 17 17 17 17
22 22 21 21 21 20 20 20 19 19 19 19 19 19 19 19 19 18 18 18 18 18 18 18 18 18 18 18 18 18 18 18 18 18 18 18 18 17 17 17 17 17 17
22 22 21 21 20 20 20 19 19 19 19 19 19 19 19 19 19 19 18 18 18 19 18 18 18 18 18 18 18 18 18 18 18 17 17 17 18 17 17 17 17 17 17
21 21 22 21 20 20 20 19 19 19 19 19 19 19 19 19 18 18 18 18 18 18 18 18 18 18 18 18 18 18 18 18 18 17 17 18 18 18 17 17 17 17 17
21 21 21 21 20 20 20 19 19 19 19 19 19 19 19 19 19 19 18 18 18 18 19 18 18 18 18 18 18 18 18 18 18 18 18 18 18 18 17 17 17 17 17
20 21 21 21 20 20 19 19 19 19 19 19 19 19 19 19 19 18 18 18 18 18 19 19 18 18 18 18 19 18 18 18 18 18 18 18 18 18 18 17 17 17 17
21 20 21 20 20 20 19 19 19 19 19 19 19 19 19 19 18 18 18 18 18 18 18 18 19 19 19 19 19 19 19 18 18 18 18 18 18 18 18 17 17 17 17
21 20 21 20 20 20 19 19 19 19 19 19 19 19 19 19 18 18 18 18 18 18 18 18 18 19 19 19 19 19 19 19 19 18 18 18 18 18 18 17 17 17 17
21 20 20 20 20 20 19 19 19 19 19 19 19 19 19 18 18 18 18 18 18 18 18 18 18 18 19 19 19 19 19 19 18 18 18 19 19 18 18 18 17 17 17
21 20 20 19 19 19 19 19 19 19 19 19 18 18 18 18 18 18 18 18 18 18 18 18 18 18 18 19 19 19 19 19 18 18 18 18 19 19 18 18 18 17 17
21 20 20 19 19 19 18 19 19 18 18 18 18 18 18 18 18 18 18 18 18 18 18 18 18 18 18 18 18 19 19 19 18 18 18 18 19 19 18 18 18 18 17
21 20 20 20 19 19 19 19 18 18 18 18 18 18 18 18 18 18 18 18 18 18 18 18 18 18 18 18 18 18 18 18 18 18 18 18 19 19 18 18 18 18 17
21 20 20 20 19 19 19 19 18 18 18 18 18 18 18 18 18 18 18 18 18 18 18 17 17 17 17 17 17 18 18 18 18 18 18 18 18 18 18 18 18 18 17
21 20 20 19 19 19 19 19 18 18 18 18 18 18 18 18 18 18 18 18 18 17 17 17 17 17 17 17 17 18 18 18 18 17 18 18 18 18 18 18 18 18 17
20 20 19 19 19 19 19 19 18 18 18 18 18 18 18 17 18 17 17 17 17 17 17 17 17 17 18 18 18 17 18 18 18 17 17 17 17 18 18 18 18 17 17
19 19 19 19 19 19 18 18 18 18 18 18 18 17 17 17 17 17 17 17 17 17 17 17 17 17 17 17 17 17 17 17 17 17 17 17 17 17 17 17 17 17 17
19 19 19 18 18 18 18 18 18 18 18 17 17 17 17 17 17 17 17 17 17 17 17 17 17 17 17 17 17 17 17 17 17 17 17 17 17 17 17 17 17 17 17
19 19 18 18 18 18 18 18 18 18 17 17 17 17 17 16 16 16 16 17 17 17 17 17 16 17 17 17 17 17 17 17 17 17 17 17 17 17 17 17 17 17 17
18 18 18 18 18 18 18 18 17 17 17 17 17 17 16 16 16 16 16 16 16 16 16 16 16 17 17 17 17 17 17 17 17 17 17 17 17 17 17 17 17 17 17
18 18 18 18 18 18 18 17 17 17 17 17 17 17 16 16 16 16 16 16 16 16 16 16 16 16 17 17 17 17 18 18 17 17 17 17 17 17 17 17 17 16 16
18 18 18 18 18 18 17 17 17 17 17 17 17 17 16 16 16 16 16 16 16 16 16 15 16 16 16 17 17 17 18 18 18 18 17 17 17 17 17 17 16 16 16
18 18 18 18 18 17 17 17 17 17 17 17 17 17 16 16 16 16 15 15 15 15 15 15 15 15 16 16 17 17 17 17 17 17 17 17 17 17 17 17 16 16 16
18 18 18 18 18 17 17 17 17 17 17 17 17 17 16 16 15 15 15 15 15 15 15 15 15 15 16 16 16 17 16 17 17 17 17 17 17 17 16 16 16 16 16
18 18 18 18 17 17 17 17 17 17 17 17 17 17 17 16 16 15 15 15 15 15 15 15 15 15 15 16 16 16 16 17 17 17 17 17 17 17 16 16 16 16 16
18 18 18 18 17 17 17 17 17 17 17 17 17 17 17 16 16 16 16 16 15 15 15 15 15 15 15 16 16 16 16 16 17 17 17 17 17 17 16 16 16 16 16
Wind_Speed
20 19 20 18 16 16 16 15 15 15 14 14 14 14 14 13 13 13 13 13 13 12 12 11 11 10 10 10 9 9 8 8 9 11 13 14 15 15 13 11 12 13 15
23 21 21 18 17 16 16 16 15 15 14 14 14 13 13 13 12 13 13 13 12 12 11 11 11 11 10 10 9 8 7 7 8 11 12 13 14 13 11 9 11 12 13
23 22 21 19 17 17 16 16 15 15 14 14 13 12 12 12 12 12 12 12 11 11 11 11 11 10 10 10 9 7 6 6 8 10 11 12 13 12 12 13 14 13 12
23 22 20 20 18 17 16 15 15 15 14 13 13 12 12 11 11 11 11 11 11 10 10 10 10 10 10 9 8 6 5 4 5 8 9 12 13 13 14 14 13 12 12
21 21 22 20 18 17 16 15 15 14 13 13 12 11 11 10 10 10 10 10 9 9 9 9 9 9 9 8 7 5 4 2 1 4 11 14 14 14 15 14 13 12 12
21 22 21 20 18 17 16 15 14 14 13 12 11 10 10 10 9 9 8 8 8 8 8 8 8 8 8 7 6 5 5 4 4 5 14 16 14 14 14 13 13 13 12
21 21 21 19 18 17 15 15 14 13 12 11 10 10 9 9 8 8 7 7 7 7 7 7 6 6 6 6 5 6 7 9 5 8 16 16 16 15 14 13 13 13 12
21 21 20 19 18 16 15 14 13 12 11 10 10 9 8 8 7 7 6 6 6 5 5 5 5 5 4 4 4 6 9 10 5 12 17 17 18 15 14 13 13 12 12
21 20 18 18 16 15 15 14 13 12 11 10 9 8 7 7 6 6 6 5 5 4 3 3 3 3 3 2 3 6 9 11 9 10 16 16 18 16 13 12 13 12 12
18 19 16 17 17 15 14 14 13 12 11 10 9 8 7 7 7 7 7 7 5 4 3 3 2 2 2 1 3 6 10 12 7 10 14 16 19 16 13 12 12 12 11
15 16 16 15 15 16 16 15 14 12 11 10 9 8 7 6 7 9 7 9 7 6 5 4 3 3 4 5 6 7 9 6 4 7 12 18 19 16 13 12 11 11 11
14 13 12 14 12 12 13 14 12 11 11 8 6 6 4 2 2 5 10 9 8 7 7 6 5 5 7 7 8 8 8 7 3 8 12 20 19 16 13 12 11 11 10
15 12 12 12 9 9 9 10 8 7 9 6 5 2 2 1 2 4 5 6 7 8 6 7 7 6 5 3 3 6 7 5 3 9 14 19 18 16 13 12 11 11 10
14 13 12 11 8 7 8 6 6 5 5 6 6 4 4 2 3 4 3 2 1 3 4 4 4 3 2 3 5 5 5 4 6 9 13 16 17 15 14 12 11 11 11
13 12 11 11 10 7 5 3 5 5 6 7 7 6 4 3 3 3 3 3 2 1 2 1 2 2 2 3 4 3 3 5 3 8 11 14 15 15 14 13 12 11 11
13 12 12 11 10 7 5 3 3 6 5 8 8 7 6 7 4 3 1 1 2 3 3 1 1 2 1 1 2 2 2 3 2 4 11 12 13 14 14 13 13 13 12
13 12 12 11 10 8 6 5 4 5 7 8 8 8 7 8 4 3 1 1 3 1 2 1 1 2 3 3 3 2 3 2 0 0 5 10 12 13 14 14 14 14 13
12 12 10 11 11 8 5 3 3 5 7 7 9 9 7 5 3 3 2 4 4 3 1 1 1 1 0 1 2 1 1 2 3 3 4 7 11 11 13 14 14 14 14
11 11 9 10 10 9 7 3 4 5 5 6 8 8 5 4 3 4 4 3 6 1 2 4 3 3 3 2 1 2 2 3 2 4 4 4 6 9 12 15 16 15 15
11 10 10 10 9 8 6 3 4 5 4 5 8 7 4 4 4 4 4 3 5 4 4 4 3 1 1 2 3 1 2 2 2 2 2 4 6 8 10 12 14 15 17
11 10 9 10 9 7 5 5 5 5 4 5 6 8 6 4 4 4 3 2 3 5 5 5 4 2 1 1 3 2 3 4 3 3 1 0 1 3 6 9 11 10 12
12 11 10 10 10 8 5 4 4 4 3 4 5 6 6 4 2 3 2 1 3 3 3 3 3 3 2 2 2 3 2 2 1 3 3 3 1 1 2 7 7 8 9
12 12 11 11 10 8 7 5 4 4 2 4 6 5 5 5 3 4 3 3 2 1 3 2 3 3 3 1 2 3 3 2 2 2 1 3 2 1 1 2 6 7 6
13 12 11 11 10 8 8 7 7 6 5 5 5 6 5 5 5 5 3 2 2 3 3 0 4 3 2 3 2 2 2 2 2 1 1 3 3 2 1 1 0 4 5
14 13 11 11 9 9 8 7 6 5 4 4 5 7 6 5 5 5 5 4 1 1 3 3 2 3 3 4 3 1 2 1 3 1 1 2 2 3 3 1 0 1 2
14 13 13 11 10 9 9 8 7 5 3 4 5 7 6 6 6 6 6 5 3 2 3 2 1 1 2 4 4 4 2 1 2 2 1 2 3 2 4 2 0 1 2
Wind_Direction
127 126 123 121 122 124 124 124 123 119 116 113 109 106 103 99 96 94 92 90 89 88 87 86 84 81 75 69 64 63 67 76 86 93 97 100 104 106 107 109 107 98 104
125 127 124 122 122 123 123 123 123 122 120 116 113 111 107 104 100 97 94 92 90 88 87 86 84 81 77 73 70 70 75 86 102 107 110 110 111 112 116 119 106 107 109
124 127 125 124 123 122 122 123 124 123 121 119 118 116 112 108 104 100 97 96 93 90 88 87 84 81 76 72 70 72 80 95 110 122 124 118 117 115 114 112 111 114 112
127 132 129 128 126 125 125 125 125 124 123 122 121 117 114 111 108 104 101 98 95 92 89 88 86 80 76 71 66 63 70 92 114 134 134 128 122 119 118 118 118 119 116
129 129 130 132 130 129 127 126 126 126 125 124 122 119 116 114 110 106 104 101 97 93 90 87 85 80 75 68 58 46 40 39 86 153 129 116 113 124 123 123 123 122 121
129 130 134 134 133 131 129 128 127 127 127 126 125 123 120 116 113 110 106 103 99 95 90 87 85 80 73 62 46 23 5 341 311 143 126 121 121 129 129 128 126 126 125
134 132 137 136 134 133 133 131 130 129 129 127 126 124 123 120 117 115 110 108 106 103 97 94 91 83 74 58 31 360 343 330 303 134 122 120 127 133 133 132 130 128 127
133 132 136 137 137 137 136 135 134 133 132 132 131 130 127 126 126 126 123 118 115 113 110 107 103 93 78 52 13 343 333 327 357 122 121 123 132 132 133 134 133 130 129
131 133 141 143 141 140 139 139 139 138 138 139 139 141 144 147 149 150 146 137 130 125 123 124 125 114 92 52 346 322 318 320 321 118 120 126 132 132 132 134 135 134 133
135 138 146 149 147 149 145 144 142 143 145 148 151 159 169 178 178 178 171 160 156 158 161 163 164 161 164 220 282 296 305 313 332 108 115 131 134 134 136 137 138 140 140
137 144 152 147 152 156 152 148 150 153 159 163 169 181 195 206 190 187 173 165 170 176 184 189 192 200 216 227 243 268 287 286 20 93 120 138 137 138 141 142 144 146 146
143 147 145 145 153 156 147 150 158 164 163 177 161 174 196 215 196 155 162 172 181 189 198 206 210 220 234 232 226 246 269 267 161 132 138 143 140 143 147 149 151 153 154
148 143 138 137 137 133 131 150 152 152 151 148 116 101 103 354 26 92 143 172 196 202 206 198 210 234 235 241 214 237 266 301 67 123 148 149 144 148 153 158 160 163 162
147 140 136 125 115 112 126 133 150 139 132 115 104 55 45 56 38 55 56 46 239 167 168 171 200 222 253 280 253 253 283 307 78 116 147 152 150 154 160 166 171 175 174
140 134 125 116 108 102 98 139 127 112 115 117 108 75 26 55 49 45 60 20 333 49 103 139 175 172 206 234 266 267 295 323 61 120 146 161 161 162 167 173 180 182 183
131 124 121 120 119 116 113 96 105 118 122 108 90 76 44 64 50 9 70 40 12 64 85 187 157 191 206 198 256 266 277 303 350 111 151 168 174 174 174 178 183 188 189
128 128 130 131 131 134 138 150 137 140 122 102 102 84 57 63 45 349 39 78 22 9 158 184 169 200 205 200 208 202 218 195 117 97 162 169 179 188 187 188 191 193 194
133 134 145 144 140 138 137 149 135 121 110 114 116 100 78 73 32 342 34 50 338 331 40 100 112 310 295 188 179 211 162 162 174 214 219 193 177 185 192 199 202 201 200
138 137 139 127 138 140 138 144 112 93 100 117 110 102 98 79 31 35 70 20 310 3 39 38 55 39 349 349 268 193 200 183 170 222 210 209 177 172 186 198 205 207 206
136 136 135 131 136 140 139 140 120 116 134 126 110 111 106 92 41 4 105 32 349 41 42 52 28 73 302 310 304 190 204 177 194 185 220 221 188 187 189 186 195 210 214
140 143 146 147 149 151 150 154 151 151 164 137 128 126 120 98 84 17 59 99 40 66 39 25 10 298 227 19 313 248 198 191 177 155 194 1 143 170 162 172 188 200 207
151 150 152 153 156 160 153 154 152 146 166 134 115 130 138 135 149 116 40 47 69 102 68 28 31 337 342 90 329 310 199 154 250 157 154 176 117 70 175 181 184 187 205
160 162 165 161 159 163 159 164 154 141 185 142 142 155 157 152 126 67 61 39 0 91 105 41 4 5 357 355 45 4 356 40 160 122 102 100 94 31 302 157 182 179 199
166 164 159 156 159 163 172 177 172 179 186 159 161 151 159 169 170 155 137 93 8 50 100 327 82 343 329 315 134 114 98 61 354 115 197 138 159 168 21 346 108 168 176
169 166 160 157 162 167 181 185 188 192 181 157 153 144 167 171 188 176 154 142 161 67 87 68 72 3 343 358 356 40 72 219 260 244 157 161 211 188 161 167 307 104 133
171 166 161 160 167 173 188 189 201 213 186 157 162 158 187 174 185 182 170 161 196 168 134 123 93 110 38 21 353 347 343 329 322 332 0 228 221 184 150 152 158 196 180
Height
1519 1523 1527 1530 1532 1534 1537 1539 1541 1542 1544 1545 1546 1547 1548 1549 1550 1551 1552 1552 1553 1554 1555 1556 1556 1557 1557 1558 1559 1559 1560 1560 1561 1562 1563 1564 1565 1566 1568 1569 1570 1572 1573
1517 1523 1527 1531 1533 1536 1538 1540 1542 1544 1545 1547 1548 1549 1550 1551 1552 1553 1553 1554 1555 1556 1557 1557 1558 1558 1559 1559 1560 1560 1561 1561 1562 1563 1564 1565 1566 1568 1570 1571 1572 1574 1575
1517 1523 1527 1531 1534 1537 1539 1541 1543 1545 1547 1548 1549 1550 1551 1552 1553 1554 1555 1556 1557 1557 1558 1559 1559 1560 1560 1561 1561 1562 1563 1563 1564 1565 1566 1567 1568 1570 1571 1573 1575 1576 1577
1519 1524 1528 1532 1535 1538 1540 1543 1545 1546 1548 1549 1551 1552 1553 1554 1555 1556 1557 1558 1558 1559 1560 1560 1561 1562 1562 1563 1563 1564 1565 1565 1566 1567 1568 1569 1570 1571 1573 1575 1576 1578 1579
1521 1525 1529 1533 1536 1539 1541 1544 1546 1547 1549 1550 1552 1553 1554 1555 1556 1557 1558 1559 1560 1561 1561 1562 1563 1563 1564 1565 1565 1566 1567 1567 1568 1568 1570 1571 1572 1573 1575 1576 1578 1580 1581
1522 1526 1530 1534 1537 1540 1542 1545 1547 1549 1550 1552 1553 1554 1555 1556 1557 1558 1560 1560 1561 1562 1563 1563 1564 1565 1566 1566 1567 1568 1569 1569 1569 1570 1572 1573 1574 1575 1577 1578 1580 1581 1583
1524 1526 1531 1535 1538 1541 1543 1546 1548 1549 1551 1553 1554 1555 1556 1557 1559 1560 1560 1561 1562 1563 1564 1565 1565 1566 1567 1568 1569 1569 1570 1570 1570 1572 1573 1574 1575 1576 1578 1579 1581 1583 1584
1525 1527 1532 1536 1539 1542 1544 1546 1548 1550 1552 1554 1555 1556 1557 1558 1559 1560 1561 1562 1563 1564 1565 1565 1566 1567 1568 1569 1570 1570 1571 1571 1572 1573 1573 1574 1576 1577 1579 1580 1582 1584 1586
1526 1528 1532 1536 1539 1543 1545 1547 1549 1551 1553 1554 1556 1557 1558 1559 1560 1561 1562 1563 1563 1564 1565 1566 1566 1567 1568 1569 1570 1571 1572 1572 1573 1574 1573 1575 1576 1578 1579 1581 1583 1585 1587
1527 1530 1533 1537 1540 1543 1545 1548 1550 1552 1553 1555 1556 1558 1559 1560 1561 1561 1562 1563 1564 1564 1565 1566 1567 1568 1568 1569 1570 1571 1572 1573 1573 1573 1573 1575 1577 1578 1580 1581 1583 1585 1587
1527 1531 1535 1538 1541 1544 1546 1548 1550 1552 1554 1555 1557 1558 1559 1560 1561 1561 1562 1563 1564 1564 1565 1566 1566 1567 1568 1569 1570 1571 1572 1573 1573 1572 1574 1576 1577 1579 1580 1582 1584 1586 1588
1527 1531 1535 1538 1542 1545 1547 1549 1550 1553 1554 1555 1557 1558 1559 1560 1561 1562 1562 1563 1563 1563 1564 1565 1566 1567 1568 1569 1570 1571 1571 1573 1572 1572 1574 1577 1578 1579 1581 1582 1584 1586 1588
1526 1529 1534 1537 1541 1544 1547 1550 1551 1553 1554 1556 1557 1558 1559 1560 1561 1562 1561 1562 1562 1563 1563 1564 1565 1566 1567 1568 1569 1570 1571 1572 1571 1571 1573 1576 1578 1579 1581 1583 1584 1586 1588
1525 1528 1533 1537 1541 1544 1547 1550 1552 1553 1555 1556 1556 1557 1558 1559 1560 1560 1561 1561 1562 1563 1563 1563 1564 1565 1566 1567 1568 1569 1571 1571 1570 1569 1572 1575 1577 1579 1581 1582 1584 1586 1588
1523 1528 1532 1536 1539 1543 1547 1550 1552 1553 1555 1555 1556 1556 1558 1558 1559 1560 1560 1561 1561 1562 1562 1562 1563 1564 1565 1566 1567 1569 1570 1571 1571 1571 1572 1574 1576 1578 1580 1582 1584 1585 1587
1520 1526 1531 1535 1539 1542 1546 1549 1551 1553 1555 1555 1555 1556 1557 1557 1558 1559 1560 1560 1561 1561 1561 1562 1562 1563 1564 1565 1566 1567 1569 1570 1571 1572 1573 1574 1576 1578 1579 1581 1583 1584 1586
1518 1524 1530 1534 1538 1542 1546 1549 1551 1553 1555 1555 1555 1555 1556 1556 1557 1558 1559 1559 1560 1561 1561 1562 1562 1563 1563 1564 1565 1567 1568 1569 1570 1571 1572 1574 1574 1577 1578 1580 1581 1583 1585
1518 1523 1530 1534 1537 1541 1545 1549 1552 1553 1554 1555 1555 1555 1555 1556 1557 1558 1558 1558 1559 1560 1561 1561 1562 1562 1563 1564 1565 1566 1568 1568 1569 1570 1572 1573 1574 1575 1576 1578 1580 1582 1583
1519 1524 1529 1533 1536 1541 1544 1548 1551 1552 1554 1555 1555 1555 1555 1556 1557 1558 1557 1558 1559 1560 1560 1560 1560 1561 1562 1563 1565 1566 1567 1568 1569 1570 1571 1572 1573 1574 1575 1576 1577 1579 1581
1520 1524 1529 1532 1536 1540 1544 1547 1550 1552 1554 1555 1555 1555 1556 1556 1556 1557 1557 1558 1558 1559 1559 1559 1560 1561 1562 1563 1564 1565 1566 1567 1568 1569 1570 1571 1572 1573 1574 1574 1576 1577 1579
1519 1524 1528 1533 1536 1540 1543 1546 1549 1551 1554 1555 1555 1555 1556 1556 1557 1557 1557 1557 1558 1558 1558 1559 1559 1561 1562 1563 1564 1565 1566 1566 1567 1568 1569 1570 1571 1572 1572 1573 1574 1575 1576
1518 1522 1527 1532 1535 1538 1542 1546 1548 1551 1553 1554 1555 1555 1556 1556 1557 1558 1557 1558 1558 1558 1558 1559 1559 1560 1562 1563 1563 1564 1565 1567 1566 1568 1568 1569 1570 1571 1572 1572 1573 1573 1575
1518 1522 1526 1530 1534 1538 1541 1545 1548 1550 1552 1554 1554 1554 1555 1556 1556 1556 1557 1557 1558 1558 1558 1559 1559 1560 1562 1563 1563 1564 1564 1564 1566 1568 1568 1569 1569 1570 1571 1571 1572 1572 1573
1518 1521 1525 1529 1532 1536 1540 1544 1546 1549 1551 1553 1553 1554 1554 1555 1556 1556 1556 1556 1557 1558 1558 1559 1559 1560 1561 1562 1563 1563 1564 1564 1566 1567 1568 1568 1569 1569 1570 1571 1571 1571 1571
1517 1520 1524 1527 1531 1535 1539 1543 1545 1548 1550 1552 1553 1553 1553 1554 1555 1555 1555 1556 1556 1557 1558 1558 1558 1559 1560 1561 1562 1563 1564 1565 1565 1567 1567 1568 1568 1568 1568 1569 1570 1570 1570
1516 1519 1523 1526 1530 1534 1538 1541 1544 1547 1549 1550 1551 1552 1552 1553 1553 1554 1554 1555 1556 1557 1557 1557 1558 1559 1559 1560 1561 1562 1563 1564 1565 1565 1566 1566 1566 1567 1567 1567 1568 1568 1569